Change the Weather History Date:

Sunday, March 11, 2012

  Actual Average Record
Temperature  
Mean Temperature 52 °F -  
Max Temperature 62 °F 37 °F 62 °F (2012)
Min Temperature 41 °F 19 °F -8 °F (1969)
Degree Days  
Heating Degree Days 14    
Growing Degree Days 2 (Base 50)    
Moisture  
Dew Point 34 °F    
Average Humidity 49    
Maximum Humidity 65    
Minimum Humidity 36    
Precipitation  
Precipitation 0.00 in - - ()
Sea Level Pressure  
Sea Level Pressure 29.94 in    
Wind  
Wind Speed 8 mph (South)    
Max Wind Speed 16 mph    
Max Gust Speed 22 mph    
Visibility 10 miles    
Events Rain    
Averages and records for this station are not official NWS values.
T = Trace of Precipitation, MM = Missing Value Source: NWS Daily Summary

Daily Weather History Graph

Daily Weather History Graph

Search for Another Location

Airport or City:

Trip Planner

Search our weather history database for the weather conditions in past years. The results will help you decide how hot, cold, wet, or windy it might be!

Date:

Astronomy

Mar. 11, 2012 Rise Set
Actual Time 7:31 AM CDT 7:14 PM CDT
Civil Twilight 7:02 AM CDT 7:43 PM CDT
Nautical Twilight 6:28 AM CDT 8:17 PM CDT
Astronomical Twilight 5:54 AM CDT 8:51 PM CDT
Moon 11:53 PM CDT (3/11) 8:55 AM CDT (3/11)
Length of Visible Light 12h 40m
Length of Day
11h 42m
Waning Gibbous, 85% of the Moon is Illuminated
Mar 11
Waning Gibbous
Mar 14
Last Quarter
Mar 22
New
Mar 30
First Quarter
Apr 6
Full

Hourly Weather History & Observations

Time (CDT) Temp. Windchill Dew Point Humidity Pressure Visibility Wind Dir Wind Speed Gust Speed Precip Events Conditions
12:14 AM 51.8 °F - 26.6 °F 38% 29.96 in 10.0 mi SW 9.2 mph - N/A   Clear
12:33 AM 51.8 °F - 28.4 °F 41% 29.96 in 10.0 mi SW 6.9 mph - N/A   Clear
12:54 AM 50.0 °F - 28.4 °F 43% 29.97 in 10.0 mi SW 8.1 mph - N/A   Clear
1:14 AM 50.0 °F - 28.4 °F 43% 29.97 in 10.0 mi SW 6.9 mph 16.1 mph N/A   Clear
1:33 AM 48.2 °F - 28.4 °F 46% 29.97 in 10.0 mi SW 9.2 mph - N/A   Clear
1:54 AM 48.2 °F - 28.4 °F 46% 29.97 in 10.0 mi SW 6.9 mph 18.4 mph N/A   Clear
3:13 AM 46.4 °F 44.3 °F 28.4 °F 50% 29.96 in 10.0 mi SSW 4.6 mph - N/A   Clear
3:33 AM 46.4 °F 44.3 °F 28.4 °F 50% 29.96 in 10.0 mi SSW 4.6 mph - N/A   Clear
3:54 AM 46.4 °F 43.5 °F 28.4 °F 50% 29.96 in 10.0 mi SSW 5.8 mph - N/A   Clear
4:13 AM 44.6 °F 41.4 °F 28.4 °F 53% 29.95 in 10.0 mi SSW 5.8 mph - N/A   Clear
4:33 AM 44.6 °F 41.4 °F 28.4 °F 53% 29.95 in 10.0 mi South 5.8 mph - N/A   Clear
4:54 AM 42.8 °F 39.3 °F 28.4 °F 57% 29.96 in 10.0 mi SSW 5.8 mph - N/A   Clear
5:13 AM 44.6 °F 42.2 °F 28.4 °F 53% 29.96 in 10.0 mi SSW 4.6 mph - N/A   Clear
5:54 AM 42.8 °F 38.6 °F 28.4 °F 57% 29.96 in 10.0 mi SSW 6.9 mph - N/A   Clear
6:13 AM 41.0 °F 35.2 °F 28.4 °F 61% 29.96 in 10.0 mi SSW 9.2 mph - N/A   Clear
6:33 AM 41.0 °F 35.8 °F 30.2 °F 65% 29.97 in 10.0 mi SSW 8.1 mph 16.1 mph N/A   Clear
7:14 AM 42.8 °F 39.3 °F 30.2 °F 61% 29.97 in 10.0 mi SSW 5.8 mph - N/A   Clear
7:33 AM 42.8 °F 41.1 °F 30.2 °F 61% 29.97 in 10.0 mi SSW 3.5 mph - N/A   Clear
7:54 AM 42.8 °F 37.5 °F 30.2 °F 61% 29.97 in 10.0 mi SSW 9.2 mph - N/A   Clear
8:13 AM 42.8 °F 38.6 °F 30.2 °F 61% 29.98 in 10.0 mi SSW 6.9 mph - N/A   Clear
8:34 AM 44.6 °F 41.4 °F 30.2 °F 57% 29.98 in 10.0 mi SSW 5.8 mph - N/A   Clear
8:54 AM 46.4 °F 42.4 °F 32.0 °F 57% 29.98 in 10.0 mi SSW 8.1 mph - N/A   Clear
9:13 AM 48.2 °F - 32.0 °F 54% 29.98 in 10.0 mi SSW 9.2 mph 16.1 mph N/A   Clear
9:34 AM 50.0 °F - 32.0 °F 50% 29.98 in 10.0 mi SSW 6.9 mph - N/A   Clear
9:54 AM 51.8 °F - 33.8 °F 50% 29.98 in 10.0 mi SSW 9.2 mph - N/A   Clear
10:13 AM 53.6 °F - 33.8 °F 47% 29.98 in 10.0 mi SSW 8.1 mph - N/A   Clear
10:53 AM 55.4 °F - 33.8 °F 44% 29.99 in 10.0 mi SSW 9.2 mph 20.7 mph N/A   Clear
11:13 AM 57.2 °F - 35.6 °F 44% 29.99 in 10.0 mi SSW 6.9 mph - N/A   Clear
11:33 AM 59.0 °F - 35.6 °F 42% 29.98 in 10.0 mi SSW 5.8 mph - N/A   Clear
11:53 AM 60.8 °F - 35.6 °F 39% 29.98 in 10.0 mi SW 8.1 mph 17.3 mph N/A   Clear
12:14 PM 60.8 °F - 37.4 °F 42% 29.98 in 10.0 mi SSW 8.1 mph 17.3 mph N/A   Clear
12:33 PM 60.8 °F - 37.4 °F 42% 29.98 in 10.0 mi South 13.8 mph 17.3 mph N/A   Clear
12:53 PM 60.8 °F - 39.2 °F 45% 29.98 in 10.0 mi South 13.8 mph - N/A   Clear
1:14 PM 60.8 °F - 41.0 °F 48% 29.98 in 10.0 mi South 13.8 mph 19.6 mph N/A   Clear
1:33 PM 60.8 °F - 39.2 °F 45% 29.97 in 10.0 mi SSW 12.7 mph 21.9 mph N/A   Clear
1:53 PM 62.6 °F - 39.2 °F 42% 29.96 in 10.0 mi South 11.5 mph 18.4 mph N/A   Scattered Clouds
2:14 PM 60.8 °F - 39.2 °F 45% 29.96 in 10.0 mi SSW 10.4 mph 17.3 mph N/A   Scattered Clouds
2:33 PM 60.8 °F - 35.6 °F 39% 29.95 in 10.0 mi South 16.1 mph 19.6 mph N/A   Scattered Clouds
2:53 PM 60.8 °F - 35.6 °F 39% 29.93 in 10.0 mi South 13.8 mph 19.6 mph N/A   Scattered Clouds
3:14 PM 60.8 °F - 35.6 °F 39% 29.93 in 10.0 mi South 12.7 mph 18.4 mph N/A   Scattered Clouds
3:53 PM 60.8 °F - 33.8 °F 36% 29.91 in 10.0 mi SSE 9.2 mph - N/A   Clear
4:33 PM 60.8 °F - 35.6 °F 39% 29.88 in 10.0 mi SSE 12.7 mph - N/A   Clear
4:54 PM 60.8 °F - 37.4 °F 42% 29.87 in 10.0 mi SSE 12.7 mph 20.7 mph N/A   Scattered Clouds
5:13 PM 60.8 °F - 35.6 °F 39% 29.87 in 10.0 mi SSE 12.7 mph 18.4 mph N/A   Scattered Clouds
5:33 PM 57.2 °F - 33.8 °F 41% 29.88 in 10.0 mi South 12.7 mph - N/A   Mostly Cloudy
5:54 PM 57.2 °F - 35.6 °F 44% 29.88 in 10.0 mi SSE 12.7 mph 21.9 mph N/A   Mostly Cloudy
6:13 PM 57.2 °F - 35.6 °F 44% 29.88 in 10.0 mi SSE 13.8 mph 17.3 mph N/A   Clear
6:33 PM 55.4 °F - 37.4 °F 51% 29.88 in 10.0 mi SSE 11.5 mph - N/A   Clear
6:54 PM 55.4 °F - 37.4 °F 51% 29.88 in 10.0 mi SSE 10.4 mph - N/A   Mostly Cloudy
7:13 PM 55.4 °F - 35.6 °F 47% 29.86 in 10.0 mi SSE 11.5 mph 19.6 mph N/A   Scattered Clouds
7:34 PM 53.6 °F - 37.4 °F 54% 29.86 in 10.0 mi SSE 9.2 mph - N/A   Light Drizzle
8:14 PM 51.8 °F - 37.4 °F 58% 29.85 in 10.0 mi SE 9.2 mph - N/A   Overcast
8:33 PM 51.8 °F - 37.4 °F 58% 29.85 in 10.0 mi SSE 6.9 mph - N/A   Overcast
8:53 PM 51.8 °F - 37.4 °F 58% 29.85 in 10.0 mi SE 5.8 mph - N/A   Overcast
9:14 PM 50.0 °F - 37.4 °F 62% 29.84 in 10.0 mi SE 5.8 mph - N/A   Overcast
9:33 PM 50.0 °F - 37.4 °F 62% 29.84 in 10.0 mi SE 8.1 mph - N/A   Light Drizzle
9:54 PM 50.0 °F - 37.4 °F 62% 29.83 in 10.0 mi SE 6.9 mph - N/A Rain Light Rain
10:14 PM 50.0 °F - 37.4 °F 62% 29.81 in 10.0 mi SE 5.8 mph - N/A Rain Rain
10:33 PM 46.4 °F 43.5 °F 37.4 °F 71% 29.80 in 10.0 mi ESE 5.8 mph - N/A   Overcast
10:54 PM 46.4 °F 44.3 °F 37.4 °F 71% 29.80 in 10.0 mi ESE 4.6 mph - N/A   Overcast
11:14 PM 48.2 °F - 39.2 °F 71% 29.79 in 10.0 mi SE 5.8 mph - N/A Rain Light Rain
11:33 PM 48.2 °F - 39.2 °F 71% 29.77 in 10.0 mi SSE 3.5 mph - N/A   Overcast
11:54 PM 46.4 °F 45.2 °F 39.2 °F 76% 29.77 in 10.0 mi SSE 3.5 mph - N/A   Overcast
12:13 AM 46.4 °F 45.2 °F 39.2 °F 76% 29.77 in 10.0 mi SSE 3.5 mph - N/A Rain Rain
12:33 AM 46.4 °F 41.5 °F 41.0 °F 81% 29.76 in 10.0 mi SSE 10.4 mph - 0.04 in Rain Rain
12:54 AM 44.6 °F 40.2 °F 42.8 °F 93% 29.75 in 10.0 mi SSE 8.1 mph - 0.09 in Rain Rain